Location: Unspecified
(42.3650°N, 71.1030°W)
Time: 12:56:58
(UTC+00:00)

Courier 1B - Pass Details

Date: 29 June 2024
Orbit: 962 x 1209 km, 28.3° (Epoch: 25 July)

Event Time Altitude Azimuth Distance (km) Brightness Sun altitude
Enters shadow 04:18:34 - 244° (WSW) 3,716 10.4 -24.1°
Rises 04:18:40 0° 244° (WSW) 3,685 - -24.1°
Reaches altitude 10° 04:21:46 10° 231° (SW) 2,767 - -24.2°
Maximum altitude 04:27:02 25° 179° (S) 1,958 - -24.3°
Drops below altitude 10° 04:32:33 10° 128° (SE) 2,901 - -24.3°
Sets 04:35:53 0° 115° (ESE) 3,903 - -24.4°
